Weather History for PAJC - January, 2013

Change the Weather History Date:

Saturday, January 12, 2013

  Actual Average Record
Temperature  
Mean Temperature 45 °F -  
Max Temperature 53 °F 32 °F 53 °F (2013)
Min Temperature 37 °F 26 °F 6 °F (2012)
Degree Days  
Heating Degree Days 20    
Moisture  
Dew Point 36 °F    
Average Humidity 70    
Maximum Humidity 87    
Minimum Humidity 44    
Precipitation  
Precipitation 0.42 in - - ()
Sea Level Pressure  
Sea Level Pressure 29.49 in    
Wind  
Wind Speed 17 mph (SE)    
Max Wind Speed 46 mph    
Max Gust Speed 62 mph    
Visibility 8 miles    
Events      
Averages and records for this station are not official NWS values.
T = Trace of Precipitation, MM = Missing Value Source: NWS Daily Summary

Daily Weather History Graph

Daily Weather History Graph

Search for Another Location

Airport or City:

Trip Planner

Search our weather history database for the weather conditions in past years. The results will help you decide how hot, cold, wet, or windy it might be!

Date:

Astronomy

Jan. 12, 2013 Rise Set
Actual Time 9:59 AM AKST 5:25 PM AKST
Civil Twilight 9:13 AM AKST 6:11 PM AKST
Nautical Twilight 8:25 AM AKST 6:59 PM AKST
Astronomical Twilight 7:40 AM AKST 7:44 PM AKST
Moon 10:02 AM AKST (1/12) 7:35 PM AKST (1/12)
Length of Visible Light 8h 57m
Length of Day
7h 26m
New Moon, 2% of the Moon is Illuminated
Jan 12
New Moon
Jan 18
First Quarter
Jan 26
Full
Feb 3
Last Quarter
Feb 9
New

Hourly Weather History & Observations

Time (AKST) Temp. Windchill Dew Point Humidity Pressure Visibility Wind Dir Wind Speed Gust Speed Precip Events Conditions
12:16 AM 37.4 °F 28.2 °F 33.8 °F 87% 29.69 in 8.0 mi East 16.1 mph 26.5 mph N/A   Overcast
12:36 AM 37.4 °F 28.9 °F 33.8 °F 87% 29.69 in 9.0 mi East 13.8 mph 21.9 mph N/A   Overcast
12:56 AM 37.4 °F 28.5 °F 33.8 °F 87% 29.68 in 5.0 mi East 15.0 mph 20.7 mph N/A   Overcast
1:16 AM 37.4 °F 29.8 °F 33.8 °F 87% 29.67 in 4.0 mi ESE 11.5 mph 20.7 mph N/A   Mostly Cloudy
1:36 AM 37.4 °F 27.8 °F 33.8 °F 87% 29.65 in 5.0 mi East 17.3 mph 24.2 mph N/A   Overcast
1:56 AM 37.4 °F 28.9 °F 33.8 °F 87% 29.66 in 5.0 mi East 13.8 mph 19.6 mph 0.01 in   Overcast
2:16 AM 37.4 °F 30.3 °F 33.8 °F 87% 29.64 in 4.0 mi East 10.4 mph - N/A   Overcast
2:36 AM 37.4 °F 30.3 °F 33.8 °F 87% 29.63 in 5.0 mi East 10.4 mph - 0.01 in   Overcast
2:56 AM 37.4 °F 29.8 °F 33.8 °F 87% 29.62 in 4.0 mi East 11.5 mph 19.6 mph 0.01 in   Overcast
3:16 AM 37.4 °F 30.8 °F 33.8 °F 87% 29.61 in 5.0 mi East 9.2 mph - 0.01 in   Mostly Cloudy
3:36 AM 39.2 °F 33.6 °F 33.8 °F 81% 29.61 in 3.0 mi East 8.1 mph 16.1 mph 0.03 in   Mostly Cloudy
3:56 AM 39.2 °F 32.5 °F 33.8 °F 81% 29.60 in 3.0 mi East 10.4 mph - 0.05 in   Overcast
4:16 AM 39.2 °F - 33.8 °F 81% 29.60 in 4.0 mi Calm Calm - 0.02 in   Overcast
4:36 AM 39.2 °F 34.2 °F 35.6 °F 87% 29.58 in 8.0 mi ENE 6.9 mph - 0.04 in   Overcast
4:56 AM 39.2 °F 32.5 °F 35.6 °F 87% 29.57 in 7.0 mi ENE 10.4 mph - 0.06 in   Overcast
5:16 AM 39.2 °F 32.5 °F 35.6 °F 87% 29.56 in 3.0 mi East 10.4 mph - 0.02 in   Mostly Cloudy
5:36 AM 39.2 °F 33.0 °F 35.6 °F 87% 29.55 in 5.0 mi East 9.2 mph 18.4 mph 0.04 in   Overcast
5:56 AM 39.2 °F 35.0 °F 35.6 °F 87% 29.54 in 7.0 mi East 5.8 mph - 0.06 in   Overcast
6:16 AM 39.2 °F 34.2 °F 35.6 °F 87% 29.52 in 5.0 mi East 6.9 mph - 0.02 in   Overcast
6:36 AM 39.2 °F 32.0 °F 35.6 °F 87% 29.50 in 8.0 mi SE 11.5 mph 20.7 mph 0.03 in   Overcast
6:56 AM 41.0 °F 34.7 °F 35.6 °F 81% 29.49 in 9.0 mi SE 10.4 mph 21.9 mph 0.04 in   Overcast
7:16 AM 42.8 °F 36.6 °F 37.4 °F 81% 29.47 in 7.0 mi SE 11.5 mph 18.4 mph N/A   Overcast
7:36 AM 39.2 °F 35.9 °F 35.6 °F 87% 29.47 in 7.0 mi North 4.6 mph - N/A   Overcast
7:56 AM 42.8 °F - 37.4 °F 81% 29.47 in 10.0 mi Calm Calm - 0.01 in   Overcast
8:16 AM 44.6 °F 38.1 °F 39.2 °F 81% 29.46 in 10.0 mi SSE 13.8 mph 18.4 mph N/A   Overcast
8:36 AM 48.2 °F - 41.0 °F 76% 29.46 in 10.0 mi SE 15.0 mph 24.2 mph 0.01 in   Overcast
8:56 AM 50.0 °F - 41.0 °F 71% 29.46 in 10.0 mi SE 18.4 mph 25.3 mph 0.01 in   Overcast
9:16 AM 51.8 °F - 42.8 °F 71% 29.45 in 10.0 mi SSE 9.2 mph 25.3 mph 0.01 in   Overcast
9:36 AM 51.8 °F - 42.8 °F 71% 29.44 in 8.0 mi South 26.5 mph 39.1 mph 0.02 in   Overcast
9:56 AM 50.0 °F - 41.0 °F 71% 29.43 in 8.0 mi South 27.6 mph 42.6 mph 0.04 in   Overcast
10:16 AM 51.8 °F - 42.8 °F 71% 29.43 in 10.0 mi South 17.3 mph 39.1 mph 0.01 in   Overcast
10:36 AM 51.8 °F - 41.0 °F 67% 29.42 in 8.0 mi South 24.2 mph 52.9 mph 0.02 in   Overcast
10:56 AM 50.0 °F - 41.0 °F 71% 29.41 in 5.0 mi South 29.9 mph 42.6 mph 0.05 in   Overcast
11:16 AM 48.2 °F - 39.2 °F 71% 29.41 in 5.0 mi South 35.7 mph 44.9 mph 0.03 in   Overcast
11:36 AM 48.2 °F - 39.2 °F 71% 29.42 in 3.0 mi South 31.1 mph 44.9 mph 0.05 in   Overcast
11:56 AM 48.2 °F - 39.2 °F 71% 29.41 in 4.0 mi South 33.4 mph 54.1 mph 0.07 in   Overcast
12:16 PM 48.2 °F - 39.2 °F 71% 29.38 in 3.0 mi South 36.8 mph 50.6 mph N/A   Overcast
12:36 PM 48.2 °F - 39.2 °F 71% 29.38 in 4.0 mi SSW 34.5 mph 51.8 mph 0.01 in   Overcast
12:56 PM 48.2 °F - 39.2 °F 71% 29.39 in 3.0 mi South 39.1 mph 54.1 mph 0.01 in   Overcast
1:16 PM 48.2 °F - 39.2 °F 71% 29.37 in 4.0 mi South 46.0 mph 61.0 mph N/A   Overcast
1:36 PM 48.2 °F - 39.2 °F 71% 29.37 in 3.0 mi SSE 42.6 mph 57.5 mph N/A   Mostly Cloudy
1:56 PM 48.2 °F - 39.2 °F 71% 29.37 in 5.0 mi SSE 38.0 mph 62.1 mph N/A   Overcast
2:16 PM 48.2 °F - 39.2 °F 71% 29.39 in 7.0 mi SSE 28.8 mph 61.0 mph N/A   Overcast
2:36 PM 50.0 °F - 39.2 °F 66% 29.38 in 10.0 mi SSE 26.5 mph 36.8 mph N/A   Mostly Cloudy
2:56 PM 51.8 °F - 39.2 °F 62% 29.40 in 10.0 mi SSE 20.7 mph 49.5 mph N/A   Overcast
3:16 PM 51.8 °F - 39.2 °F 62% 29.39 in 10.0 mi SE 19.6 mph 46.0 mph N/A   Mostly Cloudy
3:36 PM 51.8 °F - 37.4 °F 58% 29.40 in 10.0 mi SSE 18.4 mph 39.1 mph N/A   Mostly Cloudy
3:56 PM 53.6 °F - 39.2 °F 58% 29.41 in 10.0 mi South 11.5 mph 35.7 mph N/A   Mostly Cloudy
4:16 PM 53.6 °F - 37.4 °F 54% 29.40 in 10.0 mi SE 13.8 mph 35.7 mph N/A   Mostly Cloudy
4:36 PM 53.6 °F - 35.6 °F 51% 29.40 in 10.0 mi SSE 17.3 mph 41.4 mph N/A   Partly Cloudy
4:56 PM 51.8 °F - 35.6 °F 54% 29.40 in 10.0 mi SSE 17.3 mph 33.4 mph N/A   Clear
5:16 PM 51.8 °F - 37.4 °F 58% 29.42 in 10.0 mi SSE 18.4 mph 34.5 mph N/A   Scattered Clouds
5:36 PM 50.0 °F - 37.4 °F 62% 29.44 in 10.0 mi South 27.6 mph 51.8 mph N/A   Mostly Cloudy
5:56 PM 50.0 °F - 37.4 °F 62% 29.44 in 10.0 mi South 25.3 mph 36.8 mph N/A   Overcast
6:56 PM 48.2 °F - 37.4 °F 66% 29.46 in 10.0 mi South 13.8 mph 27.6 mph N/A   Overcast
7:16 PM 48.2 °F - 37.4 °F 66% 29.46 in 10.0 mi SSE 24.2 mph 35.7 mph N/A   Mostly Cloudy
7:36 PM 48.2 °F - 37.4 °F 66% 29.46 in 10.0 mi SSE 25.3 mph 40.3 mph N/A   Partly Cloudy
7:56 PM 48.2 °F - 37.4 °F 66% 29.48 in 10.0 mi SSE 12.7 mph 36.8 mph N/A   Partly Cloudy
8:16 PM 50.0 °F - 37.4 °F 62% 29.48 in 10.0 mi South 24.2 mph 39.1 mph N/A   Clear
8:36 PM 51.8 °F - 35.6 °F 54% 29.49 in 10.0 mi South 12.7 mph 36.8 mph N/A   Clear
8:56 PM 51.8 °F - 33.8 °F 50% 29.49 in 10.0 mi SSE 18.4 mph 38.0 mph N/A   Clear
9:16 PM 51.8 °F - 32.0 °F 47% 29.49 in 10.0 mi SSE 18.4 mph 36.8 mph N/A   Clear
9:36 PM 51.8 °F - 30.2 °F 44% 29.48 in 10.0 mi SSE 26.5 mph 42.6 mph N/A   Clear
9:56 PM 51.8 °F - 30.2 °F 44% 29.49 in 10.0 mi SSE 26.5 mph 55.2 mph N/A   Clear
10:16 PM 50.0 °F - 32.0 °F 50% 29.50 in 10.0 mi SSE 31.1 mph 40.3 mph N/A   Clear
10:36 PM 51.8 °F - 33.8 °F 50% 29.51 in 10.0 mi SSE 31.1 mph 49.5 mph N/A   Clear
10:56 PM 50.0 °F - 33.8 °F 54% 29.56 in 10.0 mi SSE 15.0 mph 40.3 mph N/A   Clear
11:16 PM 50.0 °F - 30.2 °F 47% 29.58 in 10.0 mi East 3.5 mph 27.6 mph N/A   Partly Cloudy
11:36 PM 48.2 °F - 28.4 °F 46% 29.59 in 10.0 mi SSE 13.8 mph 28.8 mph N/A   Clear
11:56 PM 48.2 °F - 28.4 °F 46% 29.59 in 10.0 mi SSE 6.9 mph 18.4 mph N/A   Clear